Time,TemperatureF,DewpointF,PressureIn,WindDirection,WindDirectionDegrees,WindSpeedMPH,WindSpeedGustMPH,Humidity,HourlyPrecipIn,Conditions,Clouds,dailyrainin,SoftwareType,DateUTC
2017-01-23 00:00:00,49.4,33.5,29.85,North,0,0.0,0.0,54,0.00,,---,0.00,VWS V15.00,2017-01-23 06:00:00,
2017-01-23 00:06:00,49.2,33.7,29.85,North,0,0.0,0.0,55,0.00,,---,0.00,VWS V15.00,2017-01-23 06:06:00,
2017-01-23 00:11:00,49.2,33.3,29.85,North,0,0.0,0.0,54,0.00,,---,0.00,VWS V15.00,2017-01-23 06:11:00,
2017-01-23 00:16:00,49.2,33.3,29.85,North,0,0.0,0.0,54,0.00,,---,0.00,VWS V15.00,2017-01-23 06:16:00,
2017-01-23 00:21:00,49.1,33.7,29.85,North,0,0.0,0.0,55,0.00,,---,0.00,VWS V15.00,2017-01-23 06:21:00,
2017-01-23 00:26:00,48.9,33.5,29.85,North,0,0.0,0.0,55,0.00,,---,0.00,VWS V15.00,2017-01-23 06:26:00,
2017-01-23 00:31:00,48.9,33.5,29.85,North,0,0.0,0.0,55,0.00,,---,0.00,VWS V15.00,2017-01-23 06:31:00,
2017-01-23 00:36:00,48.9,33.5,29.85,North,0,0.0,0.0,55,0.00,,---,0.00,VWS V15.00,2017-01-23 06:36:00,
2017-01-23 00:41:00,48.9,33.9,29.85,North,0,0.0,0.0,56,0.00,,---,0.00,VWS V15.00,2017-01-23 06:41:00,
2017-01-23 00:46:00,48.9,33.5,29.84,North,0,0.0,0.0,55,0.00,,---,0.00,VWS V15.00,2017-01-23 06:46:00,
2017-01-23 00:51:00,48.8,33.8,29.84,North,0,0.0,0.0,56,0.00,,---,0.00,VWS V15.00,2017-01-23 06:51:00,
2017-01-23 00:56:00,48.8,33.8,29.84,North,0,0.0,0.0,56,0.00,,---,0.00,VWS V15.00,2017-01-23 06:56:00,
2017-01-23 01:01:00,48.8,33.8,29.85,North,0,0.0,0.0,56,0.00,,---,0.00,VWS V15.00,2017-01-23 07:01:00,
2017-01-23 01:06:00,48.6,33.6,29.85,North,0,0.0,0.0,56,0.00,,---,0.00,VWS V15.00,2017-01-23 07:06:00,
2017-01-23 01:11:00,48.6,33.6,29.85,North,0,0.0,0.0,56,0.00,,---,0.00,VWS V15.00,2017-01-23 07:11:00,
2017-01-23 01:16:00,48.8,33.8,29.85,North,0,0.0,0.0,56,0.00,,---,0.00,VWS V15.00,2017-01-23 07:16:00,
2017-01-23 01:21:00,48.8,33.8,29.85,North,0,0.0,0.0,56,0.00,,---,0.00,VWS V15.00,2017-01-23 07:21:00,
2017-01-23 01:26:00,48.9,33.5,29.85,North,0,0.0,0.0,55,0.00,,---,0.00,VWS V15.00,2017-01-23 07:26:00,
2017-01-23 01:31:00,49.2,33.3,29.85,North,0,0.0,0.0,54,0.00,,---,0.00,VWS V15.00,2017-01-23 07:31:00,
2017-01-23 01:36:00,49.5,33.6,29.85,North,0,0.0,0.0,54,0.00,,---,0.00,VWS V15.00,2017-01-23 07:36:00,
2017-01-23 01:41:00,49.6,33.2,29.85,North,0,0.0,0.0,53,0.00,,---,0.00,VWS V15.00,2017-01-23 07:41:00,
2017-01-23 01:46:00,49.9,33.5,29.85,North,0,0.0,0.0,53,0.00,,---,0.00,VWS V15.00,2017-01-23 07:46:00,
2017-01-23 01:51:00,49.9,33.5,29.85,North,0,0.0,0.0,53,0.00,,---,0.00,VWS V15.00,2017-01-23 07:51:00,
2017-01-23 01:56:00,50.1,33.7,29.85,North,0,0.0,0.0,53,0.00,,---,0.00,VWS V15.00,2017-01-23 07:56:00,
2017-01-23 02:01:00,50.1,33.7,29.85,North,0,0.0,0.0,53,0.00,,---,0.00,VWS V15.00,2017-01-23 08:01:00,
2017-01-23 02:06:00,49.9,33.5,29.85,North,0,0.0,0.0,53,0.00,,---,0.00,VWS V15.00,2017-01-23 08:06:00,
2017-01-23 02:11:00,49.9,33.9,29.85,North,0,0.0,0.0,54,0.00,,---,0.00,VWS V15.00,2017-01-23 08:11:00,
2017-01-23 02:16:00,49.8,33.8,29.85,North,0,0.0,0.0,54,0.00,,---,0.00,VWS V15.00,2017-01-23 08:16:00,
2017-01-23 02:21:00,49.6,33.7,29.85,North,0,0.0,0.0,54,0.00,,---,0.00,VWS V15.00,2017-01-23 08:21:00,
2017-01-23 02:26:00,49.5,33.6,29.85,North,0,0.0,0.0,54,0.00,,---,0.00,VWS V15.00,2017-01-23 08:26:00,
2017-01-23 02:31:00,49.5,33.6,29.85,North,0,0.0,0.0,54,0.00,,---,0.00,VWS V15.00,2017-01-23 08:31:00,
2017-01-23 02:36:00,49.4,33.5,29.85,North,0,0.0,0.0,54,0.00,,---,0.00,VWS V15.00,2017-01-23 08:36:00,
2017-01-23 02:41:00,49.2,33.3,29.85,North,0,0.0,0.0,54,0.00,,---,0.00,VWS V15.00,2017-01-23 08:41:00,
2017-01-23 02:46:00,49.2,33.3,29.86,North,0,0.0,0.0,54,0.00,,---,0.00,VWS V15.00,2017-01-23 08:46:00,
2017-01-23 02:51:00,49.1,33.2,29.86,North,0,0.0,0.0,54,0.00,,---,0.00,VWS V15.00,2017-01-23 08:51:00,
2017-01-23 02:56:00,49.1,33.7,29.86,North,0,0.0,0.0,55,0.00,,---,0.00,VWS V15.00,2017-01-23 08:56:00,
2017-01-23 03:01:00,49.1,33.7,29.86,North,0,0.0,0.0,55,0.00,,---,0.00,VWS V15.00,2017-01-23 09:01:00,
2017-01-23 03:06:00,48.9,33.5,29.86,North,0,0.0,0.0,55,0.00,,---,0.00,VWS V15.00,2017-01-23 09:06:00,
2017-01-23 03:07:00,48.9,33.5,29.86,North,0,0.0,0.0,55,0.00,,---,0.00,VWS V15.00,2017-01-23 09:07:00,
2017-01-23 03:12:00,48.9,33.5,29.86,North,0,0.0,0.0,55,0.00,,---,0.00,VWS V15.00,2017-01-23 09:12:00,
2017-01-23 03:17:00,48.9,33.5,29.87,North,0,0.0,0.0,55,0.00,,---,0.00,VWS V15.00,2017-01-23 09:17:00,
2017-01-23 03:22:00,48.8,33.4,29.87,North,0,0.0,0.0,55,0.00,,---,0.00,VWS V15.00,2017-01-23 09:22:00,
2017-01-23 03:27:00,48.8,33.4,29.87,North,0,0.0,0.0,55,0.00,,---,0.00,VWS V15.00,2017-01-23 09:27:00,
2017-01-23 03:32:00,48.6,33.2,29.87,North,0,0.0,0.0,55,0.00,,---,0.00,VWS V15.00,2017-01-23 09:32:00,
2017-01-23 03:37:00,48.6,33.6,29.87,North,0,0.0,0.0,56,0.00,,---,0.00,VWS V15.00,2017-01-23 09:37:00,
2017-01-23 03:44:00,48.3,33.3,29.87,North,0,0.0,0.0,56,0.00,,---,0.00,VWS V15.00,2017-01-23 09:44:00,
2017-01-23 03:49:00,48.2,33.3,29.87,North,0,0.0,0.0,56,0.00,,---,0.00,VWS V15.00,2017-01-23 09:49:00,
2017-01-23 03:54:00,48.0,33.5,29.87,North,0,0.0,0.0,57,0.00,,---,0.00,VWS V15.00,2017-01-23 09:54:00,
2017-01-23 03:59:00,48.0,33.5,29.87,North,0,0.0,0.0,57,0.00,,---,0.00,VWS V15.00,2017-01-23 09:59:00,
2017-01-23 04:04:00,47.9,33.4,29.87,North,0,0.0,0.0,57,0.00,,---,0.00,VWS V15.00,2017-01-23 10:04:00,
2017-01-23 04:09:00,47.7,33.2,29.87,North,0,0.0,0.0,57,0.00,,---,0.00,VWS V15.00,2017-01-23 10:09:00,
2017-01-23 04:14:00,47.6,33.1,29.87,North,0,0.0,0.0,57,0.00,,---,0.00,VWS V15.00,2017-01-23 10:14:00,
2017-01-23 04:19:00,47.6,33.6,29.87,North,0,0.0,0.0,58,0.00,,---,0.00,VWS V15.00,2017-01-23 10:19:00,
2017-01-23 04:24:00,47.6,33.1,29.87,North,0,0.0,0.0,57,0.00,,---,0.00,VWS V15.00,2017-01-23 10:24:00,
2017-01-23 04:29:00,47.6,33.6,29.87,North,0,0.0,0.0,58,0.00,,---,0.00,VWS V15.00,2017-01-23 10:29:00,
2017-01-23 04:34:00,47.6,33.1,29.87,North,0,0.0,0.0,57,0.00,,---,0.00,VWS V15.00,2017-01-23 10:34:00,
2017-01-23 04:39:00,47.4,33.4,29.87,North,0,0.0,0.0,58,0.00,,---,0.00,VWS V15.00,2017-01-23 10:39:00,
2017-01-23 04:44:00,47.4,33.4,29.87,North,0,0.0,0.0,58,0.00,,---,0.00,VWS V15.00,2017-01-23 10:44:00,
2017-01-23 04:49:00,47.3,33.3,29.86,North,0,0.0,0.0,58,0.00,,---,0.00,VWS V15.00,2017-01-23 10:49:00,
2017-01-23 04:54:00,47.1,33.5,29.86,North,0,0.0,0.0,59,0.00,,---,0.00,VWS V15.00,2017-01-23 10:54:00,
2017-01-23 04:59:00,47.0,33.4,29.86,North,0,0.0,0.0,59,0.00,,---,0.00,VWS V15.00,2017-01-23 10:59:00,
2017-01-23 05:04:00,46.8,33.2,29.86,North,0,0.0,0.0,59,0.00,,---,0.00,VWS V15.00,2017-01-23 11:04:00,
2017-01-23 05:09:00,46.7,33.6,29.86,North,0,0.0,0.0,60,0.00,,---,0.00,VWS V15.00,2017-01-23 11:09:00,
2017-01-23 05:14:00,46.5,33.4,29.86,North,0,0.0,0.0,60,0.00,,---,0.00,VWS V15.00,2017-01-23 11:14:00,
2017-01-23 05:19:00,46.4,33.7,29.86,North,0,0.0,0.0,61,0.00,,---,0.00,VWS V15.00,2017-01-23 11:19:00,
2017-01-23 05:24:00,46.2,33.1,29.86,North,0,0.0,0.0,60,0.00,,---,0.00,VWS V15.00,2017-01-23 11:24:00,
2017-01-23 05:29:00,46.2,33.1,29.86,North,0,0.0,0.0,60,0.00,,---,0.00,VWS V15.00,2017-01-23 11:29:00,
2017-01-23 05:34:00,46.2,33.1,29.86,North,0,0.0,0.0,60,0.00,,---,0.00,VWS V15.00,2017-01-23 11:34:00,
2017-01-23 05:39:00,46.1,33.0,29.86,North,0,0.0,0.0,60,0.00,,---,0.00,VWS V15.00,2017-01-23 11:39:00,
2017-01-23 05:44:00,46.1,33.0,29.86,North,0,0.0,0.0,60,0.00,,---,0.00,VWS V15.00,2017-01-23 11:44:00,
2017-01-23 05:49:00,46.1,33.4,29.86,North,0,0.0,0.0,61,0.00,,---,0.00,VWS V15.00,2017-01-23 11:49:00,
2017-01-23 05:54:00,46.1,33.4,29.86,North,0,0.0,0.0,61,0.00,,---,0.00,VWS V15.00,2017-01-23 11:54:00,
2017-01-23 05:59:00,46.1,33.4,29.86,North,0,0.0,0.0,61,0.00,,---,0.00,VWS V15.00,2017-01-23 11:59:00,
2017-01-23 06:05:00,46.1,33.4,29.87,North,0,0.0,0.0,61,0.00,,---,0.00,VWS V15.00,2017-01-23 12:05:00,
2017-01-23 06:10:00,46.1,33.0,29.87,North,0,0.0,0.0,60,0.00,,---,0.00,VWS V15.00,2017-01-23 12:10:00,
2017-01-23 06:15:00,46.2,33.1,29.87,North,0,0.0,0.0,60,0.00,,---,0.00,VWS V15.00,2017-01-23 12:15:00,
2017-01-23 06:20:00,46.2,33.1,29.88,North,0,0.0,0.0,60,0.00,,---,0.00,VWS V15.00,2017-01-23 12:20:00,
2017-01-23 06:25:00,46.4,33.3,29.88,North,0,0.0,0.0,60,0.00,,---,0.00,VWS V15.00,2017-01-23 12:25:00,
2017-01-23 06:30:00,46.4,33.3,29.88,North,0,0.0,0.0,60,0.00,,---,0.00,VWS V15.00,2017-01-23 12:30:00,
2017-01-23 06:35:00,46.4,33.3,29.89,North,0,0.0,0.0,60,0.00,,---,0.00,VWS V15.00,2017-01-23 12:35:00,
2017-01-23 06:40:00,46.4,33.3,29.89,North,0,0.0,0.0,60,0.00,,---,0.00,VWS V15.00,2017-01-23 12:40:00,
2017-01-23 06:45:00,46.4,33.3,29.89,North,0,0.0,0.0,60,0.00,,---,0.00,VWS V15.00,2017-01-23 12:45:00,
2017-01-23 06:50:00,46.2,33.1,29.89,North,0,0.0,0.0,60,0.00,,---,0.00,VWS V15.00,2017-01-23 12:50:00,
2017-01-23 06:55:00,46.2,33.1,29.89,North,0,0.0,0.0,60,0.00,,---,0.00,VWS V15.00,2017-01-23 12:55:00,
2017-01-23 07:00:00,46.2,33.1,29.89,North,0,0.0,0.0,60,0.00,,---,0.00,VWS V15.00,2017-01-23 13:00:00,
2017-01-23 07:05:00,46.1,33.0,29.90,North,0,0.0,0.0,60,0.00,,---,0.00,VWS V15.00,2017-01-23 13:05:00,
2017-01-23 07:10:00,46.1,33.4,29.90,North,0,0.0,0.0,61,0.00,,---,0.00,VWS V15.00,2017-01-23 13:10:00,
2017-01-23 07:15:00,46.0,33.3,29.90,North,0,0.0,0.0,61,0.00,,---,0.00,VWS V15.00,2017-01-23 13:15:00,
2017-01-23 07:20:00,46.0,33.3,29.90,North,0,0.0,0.0,61,0.00,,---,0.00,VWS V15.00,2017-01-23 13:20:00,
2017-01-23 07:25:00,45.8,33.1,29.90,North,0,0.0,0.0,61,0.00,,---,0.00,VWS V15.00,2017-01-23 13:25:00,
2017-01-23 07:30:00,45.7,33.0,29.90,North,0,0.0,0.0,61,0.00,,---,0.00,VWS V15.00,2017-01-23 13:30:00,
2017-01-23 07:35:00,45.7,33.0,29.90,North,0,0.0,0.0,61,0.00,,---,0.00,VWS V15.00,2017-01-23 13:35:00,
2017-01-23 07:40:00,45.7,33.4,29.90,North,0,0.0,0.0,62,0.00,,---,0.00,VWS V15.00,2017-01-23 13:40:00,
2017-01-23 07:45:00,45.7,33.4,29.90,North,0,0.0,0.0,62,0.00,,---,0.00,VWS V15.00,2017-01-23 13:45:00,
2017-01-23 07:50:00,45.7,33.4,29.90,North,0,0.0,0.0,62,0.00,,---,0.00,VWS V15.00,2017-01-23 13:50:00,
2017-01-23 07:55:00,45.7,33.4,29.90,North,0,0.0,0.0,62,0.00,,---,0.00,VWS V15.00,2017-01-23 13:55:00,
2017-01-23 08:00:00,45.8,33.5,29.90,North,0,0.0,0.0,62,0.00,,---,0.00,VWS V15.00,2017-01-23 14:00:00,
2017-01-23 08:05:00,45.8,33.5,29.91,North,0,0.0,0.0,62,0.00,,---,0.00,VWS V15.00,2017-01-23 14:05:00,
2017-01-23 08:07:00,45.8,33.5,29.91,North,0,0.0,0.0,62,0.00,,---,0.00,VWS V15.00,2017-01-23 14:07:00,
2017-01-23 08:12:00,45.8,33.9,29.91,North,0,0.0,0.0,63,0.00,,---,0.00,VWS V15.00,2017-01-23 14:12:00,
2017-01-23 08:17:00,46.0,34.1,29.91,North,0,0.0,0.0,63,0.00,,---,0.00,VWS V15.00,2017-01-23 14:17:00,
2017-01-23 08:22:00,46.0,34.1,29.91,North,0,0.0,0.0,63,0.00,,---,0.00,VWS V15.00,2017-01-23 14:22:00,
2017-01-23 08:27:00,46.1,34.2,29.91,North,0,0.0,0.0,63,0.00,,---,0.00,VWS V15.00,2017-01-23 14:27:00,
2017-01-23 08:32:00,46.2,34.3,29.91,North,0,0.0,0.0,63,0.00,,---,0.00,VWS V15.00,2017-01-23 14:32:00,
2017-01-23 08:37:00,46.5,34.6,29.91,North,0,0.0,0.0,63,0.00,,---,0.00,VWS V15.00,2017-01-23 14:37:00,
2017-01-23 08:42:00,46.7,34.8,29.91,North,0,0.0,0.0,63,0.00,,---,0.00,VWS V15.00,2017-01-23 14:42:00,
2017-01-23 08:47:00,47.1,34.8,29.91,North,0,0.0,0.0,62,0.00,,---,0.00,VWS V15.00,2017-01-23 14:47:00,
2017-01-23 08:52:00,47.6,34.4,29.91,North,0,0.0,0.0,60,0.00,,---,0.00,VWS V15.00,2017-01-23 14:52:00,
2017-01-23 08:57:00,48.2,34.6,29.91,North,0,0.0,0.0,59,0.00,,---,0.00,VWS V15.00,2017-01-23 14:57:00,
2017-01-23 09:02:00,48.8,34.7,29.92,North,0,0.0,0.0,58,0.00,,---,0.00,VWS V15.00,2017-01-23 15:02:00,
2017-01-23 09:07:00,49.4,35.3,29.92,North,0,0.0,0.0,58,0.00,,---,0.00,VWS V15.00,2017-01-23 15:07:00,
2017-01-23 09:12:00,49.9,35.3,29.92,North,0,0.0,0.0,57,0.00,,---,0.00,VWS V15.00,2017-01-23 15:12:00,
2017-01-23 09:17:00,50.4,35.8,29.93,North,0,0.0,0.0,57,0.00,,---,0.00,VWS V15.00,2017-01-23 15:17:00,
2017-01-23 09:22:00,50.8,35.7,29.93,North,0,0.0,0.0,56,0.00,,---,0.00,VWS V15.00,2017-01-23 15:22:00,
2017-01-23 09:27:00,51.1,36.0,29.93,North,0,0.0,0.0,56,0.00,,---,0.00,VWS V15.00,2017-01-23 15:27:00,
2017-01-23 09:32:00,51.6,35.5,29.93,North,0,0.0,0.0,54,0.00,,---,0.00,VWS V15.00,2017-01-23 15:32:00,
2017-01-23 09:37:00,52.0,35.4,29.93,North,0,0.0,0.0,53,0.00,,---,0.00,VWS V15.00,2017-01-23 15:37:00,
2017-01-23 09:43:00,52.5,36.3,29.93,North,0,0.0,0.0,54,0.00,,---,0.00,VWS V15.00,2017-01-23 15:43:00,
2017-01-23 09:48:00,53.1,36.0,29.92,North,0,0.0,0.0,52,0.00,,---,0.00,VWS V15.00,2017-01-23 15:48:00,
2017-01-23 09:53:00,53.3,35.7,29.92,North,0,0.0,0.0,51,0.00,,---,0.00,VWS V15.00,2017-01-23 15:53:00,
2017-01-23 09:58:00,53.8,36.1,29.92,North,0,0.0,0.0,51,0.00,,---,0.00,VWS V15.00,2017-01-23 15:58:00,
2017-01-23 10:03:00,54.1,35.4,29.92,North,0,0.0,0.0,49,0.00,,---,0.00,VWS V15.00,2017-01-23 16:03:00,
2017-01-23 10:08:00,54.4,35.1,29.92,North,0,0.0,0.0,48,0.00,,---,0.00,VWS V15.00,2017-01-23 16:08:00,
2017-01-23 10:13:00,54.7,35.9,29.92,North,0,0.0,0.0,49,0.00,,---,0.00,VWS V15.00,2017-01-23 16:13:00,
2017-01-23 10:18:00,55.0,35.7,29.92,North,0,0.0,0.0,48,0.00,,---,0.00,VWS V15.00,2017-01-23 16:18:00,
2017-01-23 10:23:00,55.3,36.0,29.92,North,0,0.0,0.0,48,0.00,,---,0.00,VWS V15.00,2017-01-23 16:23:00,
2017-01-23 10:28:00,55.6,36.2,29.92,North,0,0.0,0.0,48,0.00,,---,0.00,VWS V15.00,2017-01-23 16:28:00,
2017-01-23 10:33:00,55.9,35.4,29.92,North,0,0.0,0.0,46,0.00,,---,0.00,VWS V15.00,2017-01-23 16:33:00,
2017-01-23 10:38:00,56.3,36.3,29.92,North,0,0.0,0.0,47,0.00,,---,0.00,VWS V15.00,2017-01-23 16:38:00,
2017-01-23 10:43:00,56.7,35.6,29.92,North,0,0.0,0.0,45,0.00,,---,0.00,VWS V15.00,2017-01-23 16:43:00,
2017-01-23 10:48:00,57.3,37.3,29.91,North,0,0.0,0.0,47,0.00,,---,0.00,VWS V15.00,2017-01-23 16:48:00,
2017-01-23 10:53:00,58.1,37.5,29.91,North,0,0.0,0.0,46,0.00,,---,0.00,VWS V15.00,2017-01-23 16:53:00,
2017-01-23 10:58:00,58.6,38.5,29.91,North,0,0.0,0.0,47,0.00,,---,0.00,VWS V15.00,2017-01-23 16:58:00,
2017-01-23 11:03:00,59.3,38.0,29.90,North,0,0.0,0.0,45,0.00,,---,0.00,VWS V15.00,2017-01-23 17:03:00,
2017-01-23 11:08:00,60.1,38.7,29.90,North,0,0.0,0.0,45,0.00,,---,0.00,VWS V15.00,2017-01-23 17:08:00,
2017-01-23 11:13:00,61.0,39.0,29.90,North,0,0.0,0.0,44,0.00,,---,0.00,VWS V15.00,2017-01-23 17:13:00,
2017-01-23 11:18:00,62.3,38.3,29.89,North,0,0.0,0.0,41,0.00,,---,0.00,VWS V15.00,2017-01-23 17:18:00,
2017-01-23 11:23:00,63.4,38.7,29.89,North,0,0.0,0.0,40,0.00,,---,0.00,VWS V15.00,2017-01-23 17:23:00,
2017-01-23 11:28:00,64.3,38.8,29.89,North,0,0.0,0.0,39,0.00,,---,0.00,VWS V15.00,2017-01-23 17:28:00,
2017-01-23 11:33:00,65.3,38.4,29.88,North,0,0.0,0.0,37,0.00,,---,0.00,VWS V15.00,2017-01-23 17:33:00,
2017-01-23 11:38:00,66.3,38.6,29.88,North,0,0.0,0.0,36,0.00,,---,0.00,VWS V15.00,2017-01-23 17:38:00,
2017-01-23 11:43:00,67.1,39.3,29.88,North,0,0.0,0.0,36,0.00,,---,0.00,VWS V15.00,2017-01-23 17:43:00,
2017-01-23 11:48:00,67.8,38.4,29.87,North,0,0.0,0.0,34,0.00,,---,0.00,VWS V15.00,2017-01-23 17:48:00,
2017-01-23 11:53:00,68.4,38.2,29.87,North,0,0.0,0.0,33,0.00,,---,0.00,VWS V15.00,2017-01-23 17:53:00,
2017-01-23 11:58:00,68.9,39.4,29.87,North,0,0.0,0.0,34,0.00,,---,0.00,VWS V15.00,2017-01-23 17:58:00,
2017-01-23 12:03:00,69.4,37.5,29.86,North,0,0.0,0.0,31,0.00,,---,0.00,VWS V15.00,2017-01-23 18:03:00,
2017-01-23 12:08:00,69.8,37.0,29.86,North,0,0.0,0.0,30,0.00,,---,0.00,VWS V15.00,2017-01-23 18:08:00,
2017-01-23 12:13:00,70.3,37.4,29.86,North,0,0.0,0.0,30,0.00,,---,0.00,VWS V15.00,2017-01-23 18:13:00,
2017-01-23 12:18:00,70.6,38.5,29.84,North,0,0.0,0.0,31,0.00,,---,0.00,VWS V15.00,2017-01-23 18:18:00,
2017-01-23 12:23:00,70.9,37.1,29.84,North,0,0.0,0.0,29,0.00,,---,0.00,VWS V15.00,2017-01-23 18:23:00,
2017-01-23 12:29:00,71.1,37.3,29.84,North,0,0.0,0.0,29,0.00,,---,0.00,VWS V15.00,2017-01-23 18:29:00,
2017-01-23 12:34:00,71.3,38.3,29.83,North,0,0.0,0.0,30,0.00,,---,0.00,VWS V15.00,2017-01-23 18:34:00,
2017-01-23 12:39:00,71.5,38.5,29.83,North,0,0.0,0.0,30,0.00,,---,0.00,VWS V15.00,2017-01-23 18:39:00,
2017-01-23 12:44:00,71.8,37.9,29.83,North,0,0.0,0.0,29,0.00,,---,0.00,VWS V15.00,2017-01-23 18:44:00,
2017-01-23 12:49:00,72.1,38.1,29.82,North,0,0.0,0.0,29,0.00,,---,0.00,VWS V15.00,2017-01-23 18:49:00,
2017-01-23 12:54:00,72.5,36.7,29.82,North,0,0.0,0.0,27,0.00,,---,0.00,VWS V15.00,2017-01-23 18:54:00,
2017-01-23 12:59:00,72.5,37.6,29.82,North,0,0.0,0.0,28,0.00,,---,0.00,VWS V15.00,2017-01-23 18:59:00,
2017-01-23 13:04:00,72.8,38.7,29.79,North,0,0.0,0.0,29,0.00,,---,0.00,VWS V15.00,2017-01-23 19:04:00,
2017-01-23 13:09:00,73.0,38.0,29.79,North,0,0.0,0.0,28,0.00,,---,0.00,VWS V15.00,2017-01-23 19:09:00,
2017-01-23 13:14:00,73.3,39.2,29.79,North,0,0.0,0.0,29,0.00,,---,0.00,VWS V15.00,2017-01-23 19:14:00,
2017-01-23 13:19:00,73.7,37.7,29.78,North,0,0.0,0.0,27,0.00,,---,0.00,VWS V15.00,2017-01-23 19:19:00,
2017-01-23 13:24:00,74.0,38.9,29.78,North,0,0.0,0.0,28,0.00,,---,0.00,VWS V15.00,2017-01-23 19:24:00,
2017-01-23 13:29:00,74.2,38.1,29.78,North,0,0.0,0.0,27,0.00,,---,0.00,VWS V15.00,2017-01-23 19:29:00,
2017-01-23 13:34:00,74.2,37.1,29.77,North,0,0.0,0.0,26,0.00,,---,0.00,VWS V15.00,2017-01-23 19:34:00,
2017-01-23 13:39:00,74.0,37.9,29.77,North,0,0.0,0.0,27,0.00,,---,0.00,VWS V15.00,2017-01-23 19:39:00,
2017-01-23 13:44:00,74.2,38.1,29.77,North,0,0.0,0.0,27,0.00,,---,0.00,VWS V15.00,2017-01-23 19:44:00,
2017-01-23 13:49:00,74.2,37.1,29.77,North,0,0.0,0.0,26,0.00,,---,0.00,VWS V15.00,2017-01-23 19:49:00,
2017-01-23 13:54:00,74.2,38.1,29.77,North,0,0.0,0.0,27,0.00,,---,0.00,VWS V15.00,2017-01-23 19:54:00,
2017-01-23 13:59:00,74.6,38.5,29.77,North,0,0.0,0.0,27,0.00,,---,0.00,VWS V15.00,2017-01-23 19:59:00,
2017-01-23 14:04:00,74.9,36.7,29.76,North,0,0.0,0.0,25,0.00,,---,0.00,VWS V15.00,2017-01-23 20:04:00,
2017-01-23 14:09:00,75.1,36.9,29.76,North,0,0.0,0.0,25,0.00,,---,0.00,VWS V15.00,2017-01-23 20:09:00,
2017-01-23 14:14:00,75.1,36.9,29.76,North,0,0.0,0.0,25,0.00,,---,0.00,VWS V15.00,2017-01-23 20:14:00,
2017-01-23 14:19:00,75.1,35.9,29.75,North,0,0.0,0.0,24,0.00,,---,0.00,VWS V15.00,2017-01-23 20:19:00,
2017-01-23 14:24:00,75.3,37.1,29.75,North,0,0.0,0.0,25,0.00,,---,0.00,VWS V15.00,2017-01-23 20:24:00,
2017-01-23 14:29:00,75.3,35.0,29.75,North,0,0.0,0.0,23,0.00,,---,0.00,VWS V15.00,2017-01-23 20:29:00,
2017-01-23 14:34:00,75.4,37.2,29.75,North,0,0.0,0.0,25,0.00,,---,0.00,VWS V15.00,2017-01-23 20:34:00,
2017-01-23 14:39:00,75.8,35.4,29.75,North,0,0.0,0.0,23,0.00,,---,0.00,VWS V15.00,2017-01-23 20:39:00,
2017-01-23 14:44:00,75.8,35.4,29.75,North,0,0.0,0.0,23,0.00,,---,0.00,VWS V15.00,2017-01-23 20:44:00,
2017-01-23 14:49:00,75.6,36.3,29.74,North,0,0.0,0.0,24,0.00,,---,0.00,VWS V15.00,2017-01-23 20:49:00,
2017-01-23 14:54:00,75.6,36.3,29.74,North,0,0.0,0.0,24,0.00,,---,0.00,VWS V15.00,2017-01-23 20:54:00,
2017-01-23 14:59:00,75.6,36.3,29.74,North,0,0.0,0.0,24,0.00,,---,0.00,VWS V15.00,2017-01-23 20:59:00,
2017-01-23 15:04:00,75.6,35.2,29.74,North,0,0.0,0.0,23,0.00,,---,0.00,VWS V15.00,2017-01-23 21:04:00,
2017-01-23 15:09:00,75.6,34.1,29.74,North,0,0.0,0.0,22,0.00,,---,0.00,VWS V15.00,2017-01-23 21:09:00,
2017-01-23 15:14:00,75.4,35.1,29.74,North,0,0.0,0.0,23,0.00,,---,0.00,VWS V15.00,2017-01-23 21:14:00,
2017-01-23 15:19:00,75.4,34.0,29.73,North,0,0.0,0.0,22,0.00,,---,0.00,VWS V15.00,2017-01-23 21:19:00,
2017-01-23 15:24:00,75.3,35.0,29.73,North,0,0.0,0.0,23,0.00,,---,0.00,VWS V15.00,2017-01-23 21:24:00,
2017-01-23 15:29:00,75.3,33.9,29.73,North,0,0.0,0.0,22,0.00,,---,0.00,VWS V15.00,2017-01-23 21:29:00,
2017-01-23 15:34:00,75.3,33.9,29.72,North,0,0.0,0.0,22,0.00,,---,0.00,VWS V15.00,2017-01-23 21:34:00,
2017-01-23 15:39:00,74.9,33.5,29.72,North,0,0.0,0.0,22,0.00,,---,0.00,VWS V15.00,2017-01-23 21:39:00,
2017-01-23 15:45:00,74.6,33.3,29.72,North,0,0.0,0.0,22,0.00,,---,0.00,VWS V15.00,2017-01-23 21:45:00,
2017-01-23 15:50:00,74.4,34.2,29.72,North,0,0.0,0.0,23,0.00,,---,0.00,VWS V15.00,2017-01-23 21:50:00,
2017-01-23 15:55:00,74.0,32.8,29.72,North,0,0.0,0.0,22,0.00,,---,0.00,VWS V15.00,2017-01-23 21:55:00,
2017-01-23 16:00:00,74.0,33.9,29.72,North,0,0.0,0.0,23,0.00,,---,0.00,VWS V15.00,2017-01-23 22:00:00,
2017-01-23 16:05:00,73.9,33.8,29.71,North,0,0.0,0.0,23,0.00,,---,0.00,VWS V15.00,2017-01-23 22:05:00,
2017-01-23 16:10:00,73.7,32.5,29.71,North,0,0.0,0.0,22,0.00,,---,0.00,VWS V15.00,2017-01-23 22:10:00,
2017-01-23 16:15:00,73.7,33.6,29.71,North,0,0.0,0.0,23,0.00,,---,0.00,VWS V15.00,2017-01-23 22:15:00,
2017-01-23 16:20:00,73.5,33.5,29.71,North,0,0.0,0.0,23,0.00,,---,0.00,VWS V15.00,2017-01-23 22:20:00,
2017-01-23 16:25:00,73.3,33.3,29.71,North,0,0.0,0.0,23,0.00,,---,0.00,VWS V15.00,2017-01-23 22:25:00,
2017-01-23 16:30:00,73.2,33.2,29.71,North,0,0.0,0.0,23,0.00,,---,0.00,VWS V15.00,2017-01-23 22:30:00,
2017-01-23 16:35:00,73.2,33.2,29.70,North,0,0.0,0.0,23,0.00,,---,0.00,VWS V15.00,2017-01-23 22:35:00,
2017-01-23 16:40:00,73.0,33.0,29.70,North,0,0.0,0.0,23,0.00,,---,0.00,VWS V15.00,2017-01-23 22:40:00,
2017-01-23 16:45:00,73.0,33.0,29.70,North,0,0.0,0.0,23,0.00,,---,0.00,VWS V15.00,2017-01-23 22:45:00,
2017-01-23 16:50:00,72.8,32.9,29.70,North,0,0.0,0.0,23,0.00,,---,0.00,VWS V15.00,2017-01-23 22:50:00,
2017-01-23 16:55:00,72.7,32.8,29.70,North,0,0.0,0.0,23,0.00,,---,0.00,VWS V15.00,2017-01-23 22:55:00,
2017-01-23 17:00:00,72.5,33.7,29.70,North,0,0.0,0.0,24,0.00,,---,0.00,VWS V15.00,2017-01-23 23:00:00,
2017-01-23 17:05:00,72.5,33.7,29.71,North,0,0.0,0.0,24,0.00,,---,0.00,VWS V15.00,2017-01-23 23:05:00,
2017-01-23 17:10:00,72.3,33.5,29.71,North,0,0.0,0.0,24,0.00,,---,0.00,VWS V15.00,2017-01-23 23:10:00,
2017-01-23 17:15:00,72.1,33.3,29.71,North,0,0.0,0.0,24,0.00,,---,0.00,VWS V15.00,2017-01-23 23:15:00,
2017-01-23 17:20:00,72.0,33.3,29.71,North,0,0.0,0.0,24,0.00,,---,0.00,VWS V15.00,2017-01-23 23:20:00,
2017-01-23 17:25:00,71.8,34.1,29.71,North,0,0.0,0.0,25,0.00,,---,0.00,VWS V15.00,2017-01-23 23:25:00,
2017-01-23 17:30:00,71.6,34.0,29.71,North,0,0.0,0.0,25,0.00,,---,0.00,VWS V15.00,2017-01-23 23:30:00,
2017-01-23 17:35:00,71.3,33.7,29.71,North,0,0.0,0.0,25,0.00,,---,0.00,VWS V15.00,2017-01-23 23:35:00,
2017-01-23 17:40:00,71.1,33.5,29.71,North,0,0.0,0.0,25,0.00,,---,0.00,VWS V15.00,2017-01-23 23:40:00,
2017-01-23 17:45:00,70.8,34.2,29.71,North,0,0.0,0.0,26,0.00,,---,0.00,VWS V15.00,2017-01-23 23:45:00,
2017-01-23 17:50:00,70.4,33.9,29.71,North,0,0.0,0.0,26,0.00,,---,0.00,VWS V15.00,2017-01-23 23:50:00,
2017-01-23 17:55:00,70.1,33.7,29.71,North,0,0.0,0.0,26,0.00,,---,0.00,VWS V15.00,2017-01-23 23:55:00,
2017-01-23 18:00:00,69.8,34.3,29.70,North,0,0.0,0.0,27,0.00,,---,0.00,VWS V15.00,2017-01-24 00:00:00,
2017-01-23 18:05:00,69.3,33.9,29.70,North,0,0.0,0.0,27,0.00,,---,0.00,VWS V15.00,2017-01-24 00:05:00,
2017-01-23 18:10:00,68.8,34.4,29.70,North,0,0.0,0.0,28,0.00,,---,0.00,VWS V15.00,2017-01-24 00:10:00,